Wind_Speed
32 32 32 32 32 32 32 31 31 30 30 29 28 27 28 29 31 32 31 29 28 28 28 27 27 26 24 23 22 21 20 19 19 19 19 18 17 16 15 14 13 11 9
32 32 33 32 33 33 33 32 31 31 31 31 31 29 29 30 30 32 33 32 31 30 29 29 29 28 26 25 24 23 22 21 21 22 22 21 20 18 17 15 14 13 11
33 33 33 33 33 33 34 33 33 32 32 33 32 30 30 31 31 33 34 35 33 31 30 30 29 29 28 26 25 24 24 22 21 22 24 24 22 21 20 18 16 15 14
34 34 34 33 34 34 34 34 34 32 32 32 32 31 30 32 32 33 35 35 33 32 31 30 30 29 28 27 26 25 24 23 22 22 24 25 25 24 22 21 19 18 16
34 34 34 34 34 34 34 34 34 33 32 32 31 31 31 32 33 34 34 35 35 34 33 30 31 29 29 28 27 26 25 24 23 22 24 26 26 26 25 24 22 21 20
35 35 35 35 35 35 35 34 34 34 33 32 32 32 32 32 32 33 33 35 36 36 35 33 33 31 31 31 29 27 26 25 24 23 23 24 27 27 27 26 25 24 23
36 36 36 36 36 37 36 36 35 34 33 33 33 32 33 32 32 32 33 35 35 35 35 35 34 33 33 34 32 30 28 27 25 24 23 24 25 27 28 28 27 27 26
37 36 36 37 37 37 38 38 37 36 35 33 32 30 31 31 32 32 32 34 35 37 36 35 36 34 36 36 34 33 31 29 28 26 25 25 25 26 28 28 28 28 28
36 35 35 35 35 35 36 36 36 36 35 34 32 31 30 30 31 32 33 34 35 36 36 36 36 34 35 36 35 34 32 31 30 28 27 27 27 27 28 28 29 28 28
34 34 33 32 32 33 33 34 34 34 34 33 33 32 31 30 30 31 32 33 34 35 37 36 35 35 34 35 36 35 34 32 31 30 29 28 28 28 28 29 29 28 28
34 34 32 31 31 31 31 31 31 32 32 32 32 31 31 30 30 30 31 32 34 35 36 36 36 36 36 35 36 36 35 34 32 31 30 29 29 28 28 28 28 28 27
35 35 34 32 31 31 31 31 31 31 32 32 32 32 32 31 30 30 31 32 34 34 36 37 36 36 37 35 35 36 36 35 33 32 30 29 28 28 27 27 27 26 26
37 37 36 35 34 32 32 32 32 32 32 32 32 32 32 32 32 31 31 33 33 34 35 36 37 37 37 36 36 37 37 36 34 32 30 29 28 27 27 26 25 25 24
38 38 39 38 37 36 34 34 34 34 33 33 34 34 33 33 33 32 31 31 33 34 35 36 36 37 37 37 38 39 38 37 35 33 31 29 27 26 26 25 24 23 22
39 39 40 40 40 39 38 37 36 37 36 36 36 36 36 35 35 34 33 31 32 34 35 35 36 37 39 40 40 40 40 38 36 34 31 29 27 26 25 24 23 23 21
40 40 40 41 41 41 40 40 39 39 39 39 39 39 39 39 38 37 36 35 34 35 35 36 36 38 41 42 42 42 41 40 37 35 33 30 28 26 25 24 23 22 21
40 40 40 40 40 41 41 41 41 41 41 41 42 42 42 43 42 41 39 38 37 35 35 37 37 38 41 43 44 44 43 41 39 37 35 32 30 27 26 24 23 21 20
40 39 39 39 40 41 42 43 43 44 44 44 44 45 45 46 46 45 44 42 41 39 37 36 38 39 42 44 46 45 44 43 41 39 37 34 31 29 27 24 23 21 19
39 39 39 39 40 41 42 43 45 45 46 46 47 47 48 49 48 49 49 48 46 44 41 39 39 41 43 45 47 47 46 45 43 42 40 37 34 31 28 26 24 22 20
38 38 39 39 40 41 42 43 44 46 47 47 48 49 50 51 51 52 53 53 51 49 47 44 42 42 44 46 47 48 47 46 45 44 42 39 36 33 30 28 25 23 21
38 38 39 39 40 41 42 43 44 46 47 48 49 50 52 53 54 55 56 57 56 54 52 49 47 44 46 47 48 48 48 48 47 45 44 42 39 36 32 29 26 24 22
39 39 40 40 40 40 41 42 43 44 45 46 48 50 52 53 55 57 59 60 60 59 57 55 53 48 47 48 49 50 49 49 48 47 46 44 41 38 35 31 28 25 23
39 39 39 39 39 39 40 40 41 42 42 44 46 48 50 52 54 57 60 62 63 63 62 60 58 54 50 50 49 50 50 50 50 50 49 46 44 41 37 33 30 27 24
40 39 39 38 38 38 39 40 40 40 41 42 44 45 47 49 52 55 59 63 65 66 65 64 62 60 57 54 51 51 52 52 53 53 51 48 46 43 40 36 32 28 25
40 39 39 38 37 38 39 38 38 38 38 39 41 42 44 47 49 52 56 60 65 67 69 68 67 66 62 58 55 54 54 53 53 53 52 49 47 45 42 38 34 31 28
40 39 38 38 37 37 36 35 34 34 35 36 36 38 41 43 46 50 53 57 61 66 69 71 70 69 66 63 58 54 53 53 53 52 51 50 49 47 44 41 37 34 30
Wind_Direction
289 287 287 284 281 280 278 278 278 277 276 273 269 263 255 251 246 243 241 239 238 238 240 240 241 242 242 243 243 241 239 238 235 232 229 228 227 226 227 228 229 229 230
288 287 285 283 280 279 277 276 276 275 277 275 272 267 257 251 250 247 243 240 238 237 238 238 238 239 240 242 241 240 239 239 237 233 230 229 228 228 228 228 229 228 228
289 288 286 283 280 278 277 277 276 275 276 275 272 267 261 254 249 248 243 239 237 236 235 236 236 236 237 238 238 238 238 238 236 233 230 229 228 228 228 228 228 228 227
288 286 284 282 279 277 277 278 277 276 277 274 271 265 262 257 251 248 243 238 236 234 233 233 233 232 232 232 233 234 235 235 234 233 230 228 228 228 228 228 227 227 227
287 286 283 280 278 276 275 276 277 276 276 273 270 266 262 258 253 249 244 238 235 233 232 231 231 229 228 228 229 231 231 231 231 231 230 227 227 228 228 227 227 228 229
286 284 282 280 278 276 275 275 275 276 275 273 271 267 260 256 253 248 243 239 236 232 230 229 231 229 228 227 226 226 226 226 227 228 228 227 226 227 228 228 229 230 230
286 284 283 281 279 276 275 275 274 274 275 273 270 265 258 254 252 247 242 237 234 230 231 231 232 230 229 226 225 224 223 223 224 225 226 226 226 227 228 229 231 232 232
284 283 281 280 278 276 274 273 273 272 272 272 268 265 258 252 250 247 243 238 235 232 231 231 231 231 228 226 224 222 221 220 221 222 224 226 226 227 228 229 231 232 234
285 284 282 279 277 274 272 271 270 268 268 267 265 261 258 251 250 248 244 240 235 230 230 230 229 228 227 225 222 220 220 219 220 222 224 226 227 227 228 228 230 232 234
290 289 286 282 278 275 272 269 267 265 265 264 261 258 256 253 251 246 242 239 234 230 229 228 227 228 226 223 219 217 217 219 220 221 223 224 225 226 227 228 230 232 234
294 292 290 286 281 276 272 269 266 264 262 261 258 256 253 251 250 246 242 240 234 231 228 225 226 227 225 221 216 214 215 217 219 221 221 222 222 224 226 228 229 231 232
295 293 291 287 282 277 273 269 265 262 260 258 256 253 252 250 248 244 241 239 235 232 228 225 224 223 222 218 215 213 215 216 217 218 218 218 219 221 223 224 226 227 229
295 293 291 288 284 278 272 268 265 261 259 257 255 253 250 248 247 245 243 240 236 233 230 226 223 222 220 218 215 212 213 214 215 214 214 215 216 218 219 220 222 223 225
295 292 290 287 284 280 274 269 265 262 258 256 255 253 250 246 244 242 240 238 233 230 229 224 221 219 218 216 212 212 212 213 213 212 211 212 212 214 215 216 216 217 220
294 291 288 285 282 279 276 271 267 264 260 257 254 253 250 246 242 240 237 235 232 227 223 220 218 216 215 214 212 212 211 211 210 209 209 209 209 210 212 213 213 214 216
293 290 287 284 281 278 275 272 269 265 263 259 255 253 250 247 243 240 238 235 230 227 224 219 216 213 212 211 211 211 211 210 209 208 207 207 207 207 209 209 209 211 214
294 291 288 285 282 279 276 272 270 267 264 261 257 254 250 247 244 242 240 238 233 228 223 221 216 212 211 209 210 210 210 209 208 206 206 206 205 205 206 208 209 211 213
297 294 290 287 283 280 277 274 272 269 265 262 258 254 251 247 243 241 239 238 236 231 225 221 218 213 211 210 209 209 210 208 208 206 205 205 205 206 207 209 211 212 214
300 296 293 289 286 282 279 276 274 271 267 263 259 255 251 247 243 240 238 236 235 232 227 222 218 215 213 211 209 209 209 209 208 207 205 205 206 207 208 210 213 214 216
303 299 296 292 289 285 282 279 276 272 269 265 260 256 251 246 243 239 236 235 233 231 228 225 220 217 214 211 210 210 210 209 209 208 207 207 208 209 210 211 213 216 217
305 302 299 295 292 289 286 282 279 274 270 266 262 257 252 247 242 238 235 233 231 230 228 226 222 219 216 212 211 211 211 210 209 209 209 208 208 209 210 212 213 216 218
309 306 303 299 296 293 290 287 283 278 273 268 264 259 253 248 243 238 234 232 229 227 226 225 223 220 217 214 213 212 212 211 210 209 210 210 209 210 211 212 214 215 218
312 310 307 304 300 296 293 289 286 281 276 270 266 261 255 249 243 238 233 230 227 225 224 223 223 220 217 215 213 213 212 211 211 210 210 210 210 210 211 212 214 216 218
316 314 311 307 303 299 295 293 288 283 277 272 267 262 256 249 243 237 232 228 225 224 222 222 221 220 219 215 213 214 214 213 212 212 211 211 211 212 213 214 215 217 219
319 317 314 310 306 303 299 296 291 285 280 275 269 263 256 249 242 236 230 227 224 222 220 220 220 219 218 216 213 213 213 213 214 212 212 213 213 214 215 216 217 218 221
321 319 316 312 309 307 304 300 294 289 284 279 271 263 255 247 240 234 228 224 221 219 219 218 218 218 217 215 213 212 213 213 213 212 212 213 214 215 216 217 218 220 222
Height
5860 5858 5856 5854 5852 5850 5850 5849 5848 5847 5846 5845 5845 5846 5848 5850 5852 5855 5858 5861 5864 5866 5868 5870 5873 5876 5878 5880 5883 5885 5887 5888 5890 5892 5895 5897 5899 5901 5903 5905 5907 5909 5910
5852 5850 5848 5846 5844 5842 5841 5841 5841 5839 5838 5837 5837 5838 5840 5841 5844 5847 5850 5853 5856 5858 5861 5863 5866 5870 5873 5875 5878 5880 5882 5884 5886 5888 5891 5893 5896 5898 5901 5903 5905 5907 5908
5844 5842 5840 5838 5836 5834 5833 5832 5832 5832 5831 5830 5829 5830 5832 5833 5836 5839 5841 5844 5847 5850 5853 5857 5860 5863 5867 5870 5872 5875 5877 5879 5881 5883 5886 5889 5892 5895 5898 5900 5902 5904 5906
5835 5834 5832 5830 5828 5826 5825 5824 5823 5823 5822 5821 5821 5822 5823 5825 5827 5829 5832 5836 5839 5842 5846 5850 5853 5857 5860 5864 5867 5870 5872 5875 5876 5878 5881 5884 5887 5890 5894 5896 5899 5901 5904
5827 5825 5823 5822 5820 5819 5817 5816 5815 5815 5814 5813 5813 5813 5815 5817 5819 5821 5824 5827 5831 5835 5839 5842 5846 5850 5854 5858 5861 5864 5867 5869 5872 5873 5876 5878 5882 5885 5889 5892 5895 5898 5900
5818 5817 5815 5813 5811 5810 5809 5808 5807 5806 5806 5805 5805 5804 5806 5809 5811 5813 5816 5819 5823 5827 5831 5835 5839 5843 5847 5851 5855 5859 5862 5864 5867 5869 5871 5873 5876 5880 5883 5887 5890 5893 5896
5809 5807 5805 5804 5802 5801 5800 5799 5799 5798 5798 5797 5796 5796 5797 5800 5802 5805 5808 5811 5815 5819 5823 5828 5832 5836 5840 5844 5848 5853 5856 5859 5861 5864 5866 5868 5871 5874 5878 5881 5885 5888 5891
5800 5798 5796 5794 5793 5792 5791 5790 5789 5789 5789 5788 5788 5789 5790 5793 5794 5797 5800 5803 5807 5811 5816 5820 5824 5828 5832 5837 5842 5846 5850 5853 5856 5858 5861 5863 5866 5869 5872 5875 5879 5882 5885
5789 5787 5786 5784 5783 5781 5781 5780 5780 5780 5780 5780 5780 5781 5782 5785 5786 5789 5791 5795 5798 5802 5807 5812 5816 5820 5824 5829 5834 5839 5844 5847 5850 5853 5855 5858 5861 5863 5866 5870 5873 5876 5879
5779 5777 5775 5774 5772 5771 5770 5770 5770 5770 5770 5771 5771 5772 5774 5776 5779 5780 5784 5787 5790 5794 5799 5803 5808 5812 5816 5821 5826 5831 5837 5841 5844 5846 5849 5852 5855 5858 5861 5864 5867 5870 5873
5769 5767 5765 5764 5762 5761 5760 5760 5760 5760 5761 5761 5763 5764 5766 5768 5770 5773 5776 5778 5782 5785 5790 5795 5800 5804 5809 5813 5819 5824 5829 5834 5837 5840 5843 5846 5850 5853 5856 5859 5861 5864 5867
5760 5757 5756 5754 5752 5751 5750 5750 5750 5751 5751 5752 5753 5755 5757 5759 5761 5764 5767 5770 5773 5777 5782 5786 5791 5796 5801 5806 5811 5817 5822 5827 5830 5834 5837 5841 5844 5847 5851 5853 5856 5859 5861
5750 5747 5745 5743 5742 5741 5741 5740 5740 5741 5742 5743 5744 5746 5748 5750 5752 5755 5758 5761 5765 5769 5773 5778 5783 5788 5793 5799 5804 5809 5814 5820 5824 5828 5832 5835 5839 5842 5846 5849 5851 5854 5856
5741 5738 5735 5733 5731 5730 5730 5730 5730 5730 5731 5733 5734 5736 5738 5741 5743 5746 5749 5752 5756 5760 5765 5769 5774 5779 5785 5791 5796 5802 5807 5813 5818 5822 5826 5830 5834 5837 5841 5844 5846 5849 5852
5731 5727 5724 5721 5719 5718 5718 5718 5718 5719 5720 5722 5724 5725 5728 5731 5734 5737 5740 5744 5748 5751 5756 5760 5766 5771 5777 5783 5789 5795 5801 5806 5811 5816 5821 5825 5829 5833 5837 5840 5842 5845 5847
5720 5716 5712 5709 5707 5705 5705 5705 5705 5706 5707 5709 5711 5714 5716 5720 5723 5727 5730 5734 5738 5742 5746 5751 5756 5762 5768 5774 5780 5787 5793 5799 5805 5810 5815 5820 5824 5828 5832 5835 5838 5841 5843
5708 5704 5700 5697 5694 5692 5691 5691 5691 5692 5693 5695 5697 5700 5703 5707 5711 5715 5719 5724 5728 5732 5737 5742 5747 5753 5759 5765 5772 5779 5786 5792 5798 5804 5809 5815 5819 5823 5828 5831 5834 5837 5839
5696 5691 5688 5685 5682 5679 5678 5677 5676 5677 5678 5680 5682 5685 5689 5692 5697 5702 5707 5712 5717 5722 5727 5732 5738 5744 5750 5756 5763 5770 5778 5784 5791 5797 5803 5809 5814 5819 5823 5827 5830 5833 5835
5684 5679 5675 5672 5669 5666 5664 5662 5661 5661 5662 5663 5665 5668 5672 5676 5682 5687 5693 5699 5705 5711 5716 5722 5728 5735 5741 5747 5754 5762 5769 5777 5784 5790 5796 5802 5808 5813 5818 5822 5825 5828 5831
5673 5668 5663 5659 5655 5652 5649 5647 5645 5644 5644 5645 5647 5650 5654 5658 5664 5670 5677 5684 5691 5698 5705 5711 5718 5725 5731 5737 5745 5753 5761 5769 5776 5783 5790 5796 5802 5808 5812 5817 5820 5824 5826
5662 5656 5651 5646 5642 5638 5634 5631 5629 5627 5627 5627 5628 5631 5634 5639 5645 5652 5660 5668 5675 5683 5692 5699 5707 5714 5720 5727 5736 5744 5752 5760 5768 5775 5782 5789 5795 5801 5806 5811 5815 5819 5822
5651 5645 5639 5634 5628 5624 5619 5615 5612 5610 5609 5609 5609 5611 5614 5619 5626 5633 5641 5649 5659 5668 5677 5686 5695 5702 5710 5718 5726 5734 5743 5752 5760 5768 5774 5781 5788 5794 5800 5805 5809 5813 5817
5640 5633 5627 5621 5615 5610 5605 5600 5596 5594 5592 5591 5590 5591 5594 5599 5605 5612 5621 5630 5640 5650 5661 5671 5681 5690 5699 5708 5716 5725 5733 5741 5750 5758 5765 5773 5780 5787 5793 5798 5803 5807 5811
5630 5623 5616 5609 5603 5597 5591 5586 5581 5578 5575 5574 5572 5573 5575 5578 5584 5591 5600 5610 5621 5633 5645 5657 5668 5677 5685 5695 5705 5714 5722 5731 5740 5748 5757 5765 5772 5779 5786 5791 5796 5801 5805
5620 5612 5605 5598 5591 5585 5578 5572 5567 5563 5559 5557 5555 5554 5556 5559 5564 5571 5580 5591 5603 5614 5626 5638 5651 5661 5672 5683 5692 5701 5710 5720 5729 5739 5749 5757 5765 5771 5778 5784 5789 5794 5799
5610 5602 5594 5586 5580 5573 5566 5559 5553 5549 5545 5541 5538 5537 5538 5542 5546 5552 5562 5573 5585 5598 5609 5622 5634 5647 5658 5670 5680 5690 5700 5710 5720 5730 5740 5748 5755 5763 5770 5776 5782 5787 5792